Location: Chinatown
(37.7966°N, 122.4086°W)
Time: 16:55:53
(UTC+00:00)

Cosmos 2242 Rocket - Pass Details

Date: 03 August 2024
Orbit: 616 x 647 km, 82.5° (Epoch: 06 September)

Event Time Altitude Azimuth Distance (km) Brightness Sun altitude
Rises 12:05:13 0° 354° (N) 2,896 7.4 -13.0°
Reaches altitude 10° 12:07:27 10° 357° (N) 1,988 6.6 -12.6°
Maximum altitude 12:11:51 74° 82° (E) 648 3.8 -11.9°
Drops below altitude 10° 12:16:15 10° 168° (SSE) 1,988 6.0 -11.2°
Sets 12:18:29 0° 170° (S) 2,895 6.8 -10.8°
